Lid_Strength_Index
1 1 1 1 2 2 2 3 3 3 2 2 2 2 2 2 2 3 3 3 3 3 3 2 2 1 4 8 6 2 -2 -1 1 3 6 7 10 12 13 12 13 14 13 11 11 11 11
2 1 1 1 1 2 2 3 3 3 3 3 2 2 2 2 2 3 3 3 3 3 3 2 2 1 6 12 5 3 1 2 3 5 7 7 10 10 12 12 13 12 13 12 11 11 11
2 2 2 2 2 2 2 2 2 3 3 3 3 3 2 2 2 3 2 2 3 3 2 2 1 2 7 11 4 3 3 5 5 5 8 8 8 9 11 13 12 13 15 14 12 12 13
2 2 2 2 2 2 2 3 2 2 2 2 3 3 3 3 3 3 2 2 3 2 2 2 1 4 10 5 4 3 5 5 5 5 6 7 7 10 11 11 12 14 16 19 15 13 12
2 2 2 2 2 2 2 2 2 3 3 2 3 3 3 3 3 3 2 3 2 2 2 2 5 8 8 2 5 5 6 7 7 6 6 4 8 10 11 14 15 15 18 17 14 12 12
3 3 2 2 2 2 2 2 2 2 3 3 3 3 4 4 3 3 3 3 3 2 2 2 3 8 7 6 4 6 7 7 8 7 8 9 11 12 14 15 18 17 17 16 15 12 12
3 3 3 3 2 2 2 2 2 3 3 3 4 3 4 4 4 3 5 8 9 10 7 10 8 7 6 4 4 7 6 6 7 9 13 12 14 16 14 13 13 13 14 15 13 11 12
3 3 3 3 2 3 2 3 3 3 3 3 3 4 4 4 4 4 7 8 8 8 11 8 8 6 5 5 8 6 6 9 10 13 12 13 15 12 11 12 13 13 15 15 13 11 12
3 3 3 3 3 3 3 3 3 3 4 3 3 4 4 4 4 7 8 7 6 8 12 10 8 8 8 7 8 8 7 9 11 13 13 14 13 10 11 13 13 13 14 15 14 12 12
3 3 3 3 3 3 3 4 4 4 4 4 4 4 4 4 6 8 8 6 7 8 15 11 10 9 8 8 10 6 6 8 11 12 13 13 11 11 13 13 12 15 12 12 13 15 18
4 3 3 3 3 4 4 4 4 4 4 4 4 4 3 4 9 8 6 6 7 7 19 10 10 8 10 11 10 8 6 9 11 12 13 13 13 13 13 12 10 13 10 12 13 15 16
4 4 3 3 3 4 4 4 5 4 4 4 4 4 4 6 8 6 5 7 6 14 18 11 9 10 10 9 9 8 8 8 8 11 12 12 10 11 11 9 9 9 12 13 14 16 20
4 4 4 4 4 4 4 4 5 5 4 4 4 4 5 5 8 7 7 7 14 16 10 12 11 10 11 10 10 9 10 11 14 16 15 12 12 10 8 11 11 12 16 19 21 20 20
4 4 4 4 5 4 4 5 5 5 5 5 5 5 5 5 6 6 7 11 17 13 13 10 11 11 12 10 11 10 12 13 10 12 15 15 16 11 8 11 13 14 14 19 22 21 19
5 4 5 4 5 5 4 5 5 5 5 5 6 7 7 6 5 7 9 16 15 13 11 12 11 13 13 11 11 12 13 12 11 11 15 17 14 9 8 9 10 14 16 14 17 18 20
4 5 5 5 5 6 6 5 5 5 5 6 9 8 7 7 7 8 12 13 12 9 9 11 14 12 15 13 13 13 13 10 10 9 10 13 16 10 9 9 10 12 11 17 19 23 24
4 4 5 5 6 6 6 6 5 5 6 6 9 9 7 7 7 10 15 13 10 8 8 11 12 13 13 14 13 13 12 10 8 10 10 12 14 13 11 12 14 14 16 14 16 18 21
4 4 5 6 6 7 6 6 6 6 6 8 11 12 7 8 12 15 15 12 8 9 8 9 10 11 12 12 13 13 12 11 8 9 12 11 14 16 14 10 10 12 14 14 19 18 17
4 4 5 6 6 6 7 6 6 7 7 9 12 11 7 9 18 17 15 12 11 10 9 10 11 11 11 13 14 12 11 9 8 10 11 11 14 18 15 14 12 13 12 12 13 14 17
4 4 5 6 6 7 7 7 7 7 7 10 13 15 13 13 14 16 16 15 13 9 10 10 11 11 13 14 12 13 12 9 9 9 7 8 13 15 17 15 15 15 12 11 13 17 16
6 5 5 6 7 7 7 7 7 7 7 11 14 16 15 18 17 16 16 15 14 13 11 11 12 12 13 15 14 14 12 12 10 8 10 11 15 13 12 12 12 13 13 12 14 13 16
6 6 6 6 7 7 8 7 7 7 8 12 15 16 15 17 15 16 15 16 15 14 13 13 14 12 13 15 14 14 13 14 13 11 12 10 14 13 15 12 12 13 12 12 12 12 13
7 6 6 6 7 8 8 8 7 7 10 14 13 13 13 15 17 17 17 15 15 14 12 11 13 13 14 13 12 12 11 11 11 12 12 13 14 14 16 12 13 16 13 12 12 11 12
7 7 6 6 7 8 8 8 8 7 9 13 13 14 15 17 16 17 15 15 15 14 14 12 12 14 11 9 10 10 11 11 11 11 10 13 12 13 16 14 20 13 10 10 11 10 10
8 7 6 7 7 8 8 8 8 8 8 12 13 14 16 17 14 15 14 15 14 14 14 13 11 10 10 11 13 13 13 13 11 11 11 10 12 15 17 17 15 12 11 12 13 12 9
8 7 6 7 7 8 8 8 8 8 8 13 14 13 15 16 17 14 15 15 17 17 15 13 11 10 11 12 13 16 18 14 15 13 9 10 10 14 16 19 21 14 10 8 9 15 9
7 7 6 6 7 8 8 8 8 8 8 12 14 13 14 16 13 14 17 17 15 16 17 15 11 13 11 11 14 15 16 12 16 15 15 14 14 16 16 17 15 10 9 8 16 14 9
7 7 6 6 7 7 8 8 8 8 8 11 13 12 14 15 14 13 13 15 15 15 17 15 15 13 14 15 13 13 14 13 14 12 14 15 15 16 15 17 19 8 9 13 10 8 7
7 7 6 6 7 7 8 8 8 8 9 9 13 12 10 13 14 13 12 11 11 11 14 14 15 14 13 16 12 14 15 15 14 16 10 15 12 15 13 14 9 7 8 7 8 8 7